Hourly Data Report for June 21, 2021

TORONTO CITY
ONTARIO
Current Station Operator: ECCC - MSC

43°40'00.000" N
79°24'00.000" W
112.50 m
6158355
71508
XTO

Download Data

Hourly Data (June 2021)
Hourly Data Report for June 21, 2021
TIME
LST
Temp Definition
°C
Dew Point Definition
°C
Rel Hum Definition
%
Precip. Amount Definition
mm

Wind Dir Definition
10's deg

Wind Spd Definition
km/h
Visibility Definition
km
Stn Press Definition
kPa
Hmdx Definition


Wind Chill Definition


Weather Definition


00:00 20.7 16.3 76 0.0       98.98 26   LegendNANA
01:00 20.6 17.1 80 0.0       98.94 26   LegendNANA
02:00 19.6 18.5 93 2.5       98.79     LegendNANA
03:00 20.2 19.4 96 1.5       98.64 27   LegendNANA
04:00 19.5 18.6 95 0.0       98.68     LegendNANA
05:00 19.9 18.9 94 0.0       98.63     LegendNANA
06:00 19.5 18.0 91 0.0       98.53     LegendNANA
07:00 19.2 17.8 92 0.4       98.59     LegendNANA
08:00 19.6 18.6 94 1.0       98.46     LegendNANA
09:00 20.6 18.5 88 0.0       98.40 27   LegendNANA
10:00 23.8 19.6 77 0.0       98.35 31   LegendNANA
11:00 24.6 18.9 70 0.0       98.38 31   LegendNANA
12:00 26.3 17.9 60 0.0       98.45 32   LegendNANA
13:00 24.5 18.1 67 0.0       98.40 31   LegendNANA
14:00 24.5 18.2 68 0.0       98.39 31   LegendNANA
15:00 28.8 16.1 46 0.0       98.38 33   LegendNANA
16:00 26.5 16.7 55 0.0       98.46 32   LegendNANA
17:00 23.7 14.0 55 0.0       98.60 27   LegendNANA
18:00 21.2 11.7 55 0.0       98.76     LegendNANA
19:00 19.6 10.9 57 0.0       98.89     LegendNANA
20:00 17.6 10.5 63 0.0       99.03     LegendNANA
21:00 15.8 9.7 67 0.0       99.16     LegendNANA
22:00 14.2 8.3 67 0.0       99.31     LegendNANA
23:00 13.4 7.5 67 0.0       99.38     LegendNANA

Notes on Data Quality.

Legend

  • E = Estimated
  • M = Missing
  • NA = Not Available*
  • [empty] = Indicates an unobserved value
Date modified: